,

(GMT )
Al Udeid

Weather History for KQIR - March, 2013

Change the Weather History Date:

Tuesday, March 19, 2013

  Actual Average Record
Temperature  
Mean Temperature 78 °F -  
Max Temperature 88 °F - - ()
Min Temperature 66 °F - - ()
Cooling Degree Days 12    
Growing Degree Days 28 (Base 50)    
Moisture  
Dew Point 56 °F    
Average Humidity 51    
Maximum Humidity 76    
Minimum Humidity 29    
Precipitation  
Precipitation 0.00 in - - ()
Sea Level Pressure  
Sea Level Pressure 29.84 in    
Wind  
Wind Speed 8 mph ()    
Max Wind Speed 20 mph    
Max Gust Speed 17 mph    
Visibility 6.2 miles    
Events      
T = Trace of Precipitation, MM = Missing Value Source: Averaged Metar Reports

Daily Weather History Graph

Daily Weather History Graph

Search for Another Location

Airport or City:

Trip Planner

Search our weather history database for the weather conditions in past years. The results will help you decide how hot, cold, wet, or windy it might be!

Date:

Astronomy

Mar. 19, 2013 Rise Set
Actual Time 5:39 AM +03 5:45 PM +03
Civil Twilight 5:17 AM +03 6:08 PM +03
Nautical Twilight 4:50 AM +03 6:34 PM +03
Astronomical Twilight 4:23 AM +03 7:01 PM +03
Moon 10:43 AM +03 (3/19) No Moon Set
Length of Visible Light 12h 51m
Length of Day
12h 05m
Waxing Crescent, 47% of the Moon is Illuminated
Mar 19
Waxing Crescent
Mar 19
First Quarter
Mar 27
Full
Apr 3
Last Quarter
Apr 10
New

Hourly Weather History & Observations

Time (+03) Temp. Heat Index Dew Point Humidity Pressure Visibility Wind Dir Wind Speed Gust Speed Precip Events Conditions
12:55 AM 74.3 °F - 54.3 °F 50% 29.76 in 6.2 mi East 6.9 mph - N/A   Clear
1:55 AM 74.1 °F - 53.1 °F 48% 29.76 in 6.2 mi East 3.5 mph - N/A   Clear
2:55 AM 72.7 °F - 54.5 °F 53% 29.76 in 6.2 mi NE 4.6 mph - N/A   Clear
3:55 AM 71.2 °F - 59.9 °F 67% 29.78 in 6.2 mi East 4.6 mph - N/A   Clear
4:55 AM 69.8 °F - 62.1 °F 76% 29.79 in 6.2 mi East 6.9 mph - N/A   Clear
5:55 AM 70.0 °F - 60.4 °F 72% 29.82 in 6.2 mi WNW 3.5 mph - N/A   Clear
6:55 AM 69.8 °F - 53.1 °F 55% 29.86 in 6.2 mi NNW 6.9 mph - N/A   Clear
7:55 AM 75.6 °F - 58.5 °F 55% 29.87 in 6.2 mi NNE 9.2 mph - N/A   Clear
8:55 AM 79.7 °F - 57.0 °F 46% 29.90 in 6.2 mi NNE 6.9 mph - N/A   Scattered Clouds
9:55 AM 81.5 °F 81.5 °F 57.4 °F 44% 29.92 in 6.2 mi NNE 4.6 mph - N/A   Scattered Clouds
10:55 AM 84.4 °F 82.8 °F 53.2 °F 34% 29.89 in 6.2 mi NNE 8.1 mph - N/A   Mostly Cloudy
11:55 AM 85.5 °F - 50.5 °F 30% 29.87 in 6.2 mi North 10.4 mph - N/A   Mostly Cloudy
12:55 PM 88.2 °F - 51.8 °F 29% 29.84 in 6.2 mi North 12.7 mph - N/A   Partly Cloudy
1:55 PM 87.4 °F 85.7 °F 54.7 °F 33% 29.82 in 6.2 mi NNE 9.2 mph 17.3 mph N/A   Partly Cloudy
2:55 PM 86.5 °F 86.1 °F 59.4 °F 40% 29.81 in 6.2 mi NE 15.0 mph - N/A   Clear
3:55 PM 83.8 °F 83.3 °F 57.7 °F 41% 29.81 in 6.2 mi North 17.3 mph - N/A   Clear
4:55 PM 80.6 °F 80.4 °F 54.7 °F 41% 29.83 in 6.2 mi NNE 19.6 mph - N/A   Clear
5:55 PM 77.4 °F - 54.1 °F 44% 29.84 in 6.2 mi NNE 16.1 mph - N/A   Clear
6:55 PM 74.7 °F - 54.9 °F 50% 29.87 in 6.2 mi North 15.0 mph - N/A   Clear
7:55 PM 72.0 °F - 54.7 °F 54% 29.88 in 6.2 mi North 15.0 mph - N/A   Clear
8:55 PM 70.2 °F - 54.1 °F 57% 29.89 in 6.2 mi North 13.8 mph - N/A   Clear
9:55 PM 69.1 °F - 55.4 °F 62% 29.89 in 6.2 mi North 12.7 mph - N/A   Clear
10:55 PM 67.6 °F - 55.6 °F 65% 29.88 in 6.2 mi North 12.7 mph - N/A   Clear
11:55 PM 66.7 °F - 56.1 °F 69% 29.87 in 6.2 mi NNW 12.7 mph - N/A   Clear